Regional Weather Roundup
Issued by NWS

Home | Current Version | Previous Version | Graphics & Text | Print | Product List | Glossary On
Versions: 1 2 3 4 5 6 7 8 9 10 11 12 13 14 15 16 17 18 19 20 21 22 23 24 25 26 27 28 29 30 31 32 33 34 35 36 37 38 39 40 41 42 43 44 45 46 47 48 49 50
064
ASUS43 KIND 060909
RWRIN

WEATHER ROUNDUP FOR INDIANA
NATIONAL WEATHER SERVICE INDIANAPOLIS IN
400 AM EST SAT FEB 06 2016

NOTE: "FAIR" INDICATES FEW OR NO CLOUDS BELOW 12,000 FEET WITH NO
SIGNIFICANT WEATHER AND/OR OBSTRUCTIONS TO VISIBILITY.

* - STATION DOES NOT REPORT WEATHER SUCH AS PRECIPITATION OR FOG.

+ - STATION NOT QUALITY CONTROLLED BY THE NATIONAL WEATHER SERVICE.
    USE DATA WITH CAUTION...ESPECIALLY DEWPOINT AND RELATIVE
    HUMIDITY OBSERVATIONS.

INZ001>003-010>013-019-020-061000-
NORTHWEST INDIANA

CITY           SKY/WX    TMP DP  RH WIND       PRES   REMARKS
GARY /AIRPORT/ CLOUDY    28  23  82 CALM      30.30F
LA PORTE +     MOCLDY    24  24 100 CALM      30.30F FOG
MICHIGAN CITY+ PTCLDY    23  23 100 S3        30.30F
MONTICELLO +   CLEAR     21  18  86 CALM      30.32S
RENSSELAER +   MOCLDY    23  21  93 CALM      30.31F FOG
VALPARAISO     PTCLDY    22  20  92 S5        30.29F WCI  16

$$

LMZ046-743>745-061000-
SOUTHERN LAKE MICHIGAN

STATION/POSITION TIME  TEMP    WIND        PRES    WAVE
                       AIR SEA DIR/SP/G            HT
                 (UTC) (F)     (DEG/KT/KT) (MB)    (FT)
BURNS HARBOR     0800   26     210/  8/  9 1026.8S
MICHIGAN CITY    0800   25     180/  7/  9   N/A

$$

INZ004-005-014>016-021>024-061000-
NORTH CENTRAL INDIANA

CITY           SKY/WX    TMP DP  RH WIND       PRES   REMARKS
GOSHEN         CLEAR     23  20  88 SW5       30.30S FOG     WCI  17
LOGANSPORT +   CLEAR     23  19  86 SW3       30.33S FOG
PERU/GRISSOM   CLEAR     22  22  98 SW3       30.30S FOG
ROCHESTER +    CLEAR     27  23  86 CALM      30.32S FOG
SOUTH BEND     CLEAR     20  18  92 S6        30.30F FOG     WCI  12
WARSAW +       CLEAR     23  21  93 CALM      30.30F FOG

$$

INZ006>009-017-018-025>027-061000-
NORTHEAST INDIANA

CITY           SKY/WX    TMP DP  RH WIND       PRES   REMARKS
ANGOLA *+      CLEAR     21  19  93 CALM      30.27F
AUBURN +       CLEAR     27  23  86 W3        30.30F FOG
FORT WAYNE     PTCLDY    27  24  89 W5        30.31F WCI  22
HUNTINGTON +   CLEAR     24  20  87 SW3       30.31F FOG

$$

INZ028-029-035-036-043>045-051>053-061000-
WEST CENTRAL INDIANA

CITY           SKY/WX    TMP DP  RH WIND       PRES   REMARKS
GREENCASTLE +  CLOUDY    19  14  79 CALM      30.33S HAZE
LAFAYETTE      CLEAR     19  17  92 CALM      30.33S FOG
TERRE HAUTE    CLOUDY    23  19  85 CALM      30.34S

$$

INZ030>032-037>040-046>048-054>057-064-065-061000-
CENTRAL INDIANA

CITY           SKY/WX    TMP DP  RH WIND       PRES   REMARKS
FRANKFORT +    CLOUDY    23  23  99 CALM      30.34R
INDIANAPOLIS   CLOUDY    22  19  89 CALM      30.32R
-EAGLE CREEK   CLOUDY    22  19  89 CALM      30.32S
KOKOMO *+      CLOUDY    21  18  86 CALM      30.32S
MARION +       CLOUDY    23  17  77 CALM      30.32S
MT COMFORT *+  CLOUDY    23  21  93 CALM      30.33S
SHELBYVILLE    CLOUDY    25  21  85 S3        30.32S FOG
ZIONSVILLE +   CLOUDY    21  19  95 CALM      30.32S FOG

$$

INZ033-034-041-042-049-050-058-059-061000-
EAST CENTRAL INDIANA

CITY           SKY/WX    TMP DP  RH WIND       PRES   REMARKS
MUNCIE         CLOUDY    24  20  84 SW5       30.32S FOG     WCI  18

$$

INZ060-061-067>069-081>083-085>088-061000-
SOUTHWEST INDIANA

CITY           SKY/WX    TMP DP  RH WIND       PRES   REMARKS
EVANSVILLE     CLEAR     29  22  75 CALM      30.35F
HUNTINGBURG *+ CLEAR     25  21  86 SE3       30.35S
WASHINGTON +   PTCLDY    24  24  96 CALM      30.35R FOG

$$

INZ062-063-066-070>080-084-089>092-061000-
SOUTH CENTRAL AND SOUTHEAST INDIANA

CITY           SKY/WX    TMP DP  RH WIND       PRES   REMARKS
BEDFORD +      CLOUDY    23  23 100 CALM      30.34  FOG
BLOOMINGTON    CLOUDY    20  17  88 CALM      30.33S
MADISON *+     CLOUDY    28  25  86 CALM      30.35S
NORTH VERNON + CLOUDY   N/A N/A N/A CALM      30.34S HAZE
SEYMOUR +      CLOUDY    25  23  93 CALM      30.35S FOG

$$





USA.gov is the U.S. government's official web portal to all federal, state and local government web resources and services.